Insat 2C

operational
NORAD ID: 23731 Int'l Des: 1995-067 Owner: ISRO Country: IN
HEOCIRCULAR

Über Insat 2C

Beschreibung wird geladen...

Live-Position

3D-Globus wird geladen...

Nächste Überflüge

Höhenverlauf

Altitude vs Time

uPlot chart will show altitude changes over time

Zweizeiliger Elementsatz

1 23731U 95067B 26061.48836552 .00000082 00000-0 00000-0 0 9999
2 23731 14.2438 9.0662 0003835 5.6466 177.7889 0.99781985110341
Epoch: 2. März 2026 • Age: 31 hours

Aktueller Status

Höhe 35929.7 km
Geschwindigkeit 3.07 km/s
Subsatellitenpunkt 12.49°N, 144.22°W
Startdatum 6. Dez. 1995
Alter 30.2 years
Typ other

Technische Details

Klassifizierung Payload
Masse 2050.00 kg
Trockenmasse 980.00 kg
Gesamtmasse 2050.00 kg
Länge 2.70 m
Durchmesser 2.30 m
Spannweite 14.60 m
Form Box + 2 Pan
Hersteller ISRO
Bus-Typ I2K
Phasenstatus In Orbit
Besitzer/Staat ISRO/IN

Große Konstellationen

Loading constellations...